Location: Bourguignon
(47.8056°N, 6.1636°E)
Time: 16:48:14
(UTC+00:00)

Daily predictions for brighter satellites

Satellite Brightness Start Highest point End
(mag) Time Altitude Azimuth Time Altitude Azimuth Time Altitude Azimuth
Meteor 1-5 Rocket 4.2 19:38:23 10° N 19:43:43 67° ENE 19:48:58 10° SSE
USA 307 4.2 19:41:53 10° WNW 19:45:41 31° SW 19:49:28 10° SSE
NOSS 3-4 (A) 4.0 19:40:38 10° NW 19:47:37 83° SW 19:55:25 10° SE
NOSS 3-4 (C) 4.0 19:40:45 10° NW 19:47:44 83° SW 19:55:32 10° SE
SPOT 3 Rocket 3.8 19:43:05 10° SE 19:48:05 55° ENE 19:53:07 10° N
SJ 16-02 1.3 19:45:10 10° SSW 19:49:34 73° ESE 19:54:02 10° NNE
Cosmos 1933 Rocket 3.7 19:45:52 10° N 19:50:11 61° ENE 19:54:29 10° SSE
Iridium 4 Rocket 4.4 19:47:02 10° SSE 19:52:29 41° E 19:57:56 10° NNE
Cosmos 1151 Rocket 3.8 19:48:43 10° SSW 19:53:01 57° WNW 19:57:23 10° N
Tianhe-1 2.4 19:50:48 10° SW 19:53:21 23° S 19:55:55 10° ESE
SJ-6B 4.3 19:52:52 10° SSW 19:56:35 38° W 20:00:24 10° NNW
Ariane Rocket 3.3 19:52:34 10° S 19:57:36 69° WSW 20:02:41 10° NNW
Gbstr 26 Del rocket 4.4 19:50:35 10° WNW 19:58:35 84° NNE 20:05:27 10° ESE
Cosmos 1943 Rocket 3.2 19:56:25 10° SSE 20:00:54 25° ESE 20:05:22 10° NE
ATLAS 2AS CENTAUR R/B 2.9 19:53:29 10° NW 20:00:57 77° NE 20:07:46 10° SE
Cosmos 2082 Rocket 2.3 19:56:01 10° NNW 20:01:40 84° WSW 20:07:18 10° SSE
Cosmos 158 Rocket 3.9 19:57:23 10° NNW 20:02:19 87° WSW 20:07:18 10° SSE
CRYOSAT 2 4.4 19:57:29 10° SSE 20:02:21 71° E 20:07:13 10° N
BREEZE-M DEB (TANK) 4.4 19:48:50 10° WSW 20:03:15 71° NNW 20:06:51 10° ENE
Terra 3.6 20:00:35 10° E 20:03:45 18° ENE 20:06:55 10° NNE
Cosmos 990 Rocket 4.4 19:59:32 10° S 20:04:25 42° ESE 20:09:22 10° NE
USA 215 4.2 19:58:20 10° NE 20:04:37 52° NNW 20:10:54 10° W
Meteor 1-11 Rocket 4.0 20:02:03 10° N 20:07:57 60° ENE 20:13:43 10° SSE
Cosmos 1340 Rocket 4.0 20:05:55 10° N 20:09:29 28° ENE 20:12:35 12° SE
Resurs 1-3 4.4 20:06:56 10° S 20:11:12 51° W 20:15:30 10° NNW
Cosmos 1898 Rocket 4.0 20:08:53 10° S 20:13:49 41° ESE 20:18:49 10° NE
CZ-2C R/B 3.9 20:12:19 10° NNE 20:16:46 51° E 20:21:15 10° S
Cosmos 923 Rocket 4.1 20:14:50 10° NNW 20:20:08 87° WSW 20:25:16 11° SSE
USA 245 2.9 20:18:58 17° SE 20:20:22 36° ENE 20:22:47 10° N
ARIANE 5 R/B 3.2 20:18:52 13° SE 20:22:25 43° ENE 20:26:33 10° N
Cosmos 1271 Rocket 2.8 20:19:00 10° SSW 20:23:00 86° WNW 20:27:01 10° N
Cosmos 2278 Rocket 3.3 20:21:26 10° SW 20:26:54 48° NW 20:32:24 10° NNE
Cosmos 1461 3.6 20:22:48 10° S 20:27:12 40° ESE 20:31:32 10° NE
Cosmos 2369 Rocket 3.4 20:26:36 14° SE 20:29:56 23° ESE 20:34:15 10° NE
Cosmos 1666 3.5 20:27:27 10° NNW 20:31:03 48° W 20:34:38 10° S
Meteor 1-10 Rocket 4.3 20:26:31 10° SSW 20:32:09 84° W 20:37:56 10° N
Cosmos 1818 3.6 20:26:42 10° NW 20:32:14 79° NE 20:36:36 16° SE
Landsat 7 4.1 20:28:31 10° S 20:33:15 69° WSW 20:38:01 10° NNW
SL-24 R/B - RUBIN 2 4.1 20:29:03 10° NW 20:34:29 71° WSW 20:38:18 16° SSE
ATLAS CENTAUR R/B 3.3 20:36:25 11° E 20:36:25 11° E 20:36:54 10° E
Cosmos 1536 2.8 20:33:01 10° N 20:37:03 72° E 20:40:06 17° SSE
ERBS 2.2 20:35:04 10° NW 20:38:22 77° SW 20:40:21 22° SE
Cosmos 1238 Rocket 4.4 20:36:13 10° N 20:41:20 34° ENE 20:44:23 18° SE
SPOT 5 3.4 20:39:51 17° SE 20:43:46 54° ENE 20:48:59 10° N
CZ-2C R/B 3.4 20:42:48 10° S 20:43:05 10° S 20:43:05 10° S
Cosmos 2154 Rocket 4.0 20:38:49 10° N 20:45:10 86° E 20:50:44 14° S
Nadezhda 1 Rocket 4.0 20:39:51 10° S 20:46:06 77° E 20:52:18 10° NNE
Cosmos 2074 Rocket 4.4 20:41:24 10° NNW 20:47:38 64° W 20:53:48 10° S
Cosmos 2184 Rocket 4.4 20:45:04 10° NNW 20:51:10 62° W 20:57:13 10° S
ERS-1 Rocket 3.1 20:49:06 19° SSE 20:52:38 64° ENE 20:57:37 10° N
Cosmos 1862 Rocket 4.5 20:54:16 22° SE 20:56:03 30° E 20:59:51 10° NNE
Cosmos 1975 4.3 20:52:53 10° NNE 20:56:07 23° ENE 20:57:45 18° ESE
ISS -3.2 20:53:42 10° W 20:57:02 60° NNW 21:00:23 10° ENE
Cosmos 2112 Rocket 4.3 20:53:07 10° NNW 20:58:26 65° WSW 21:02:28 17° S
Cosmos 1869 Rocket 4.0 20:56:18 10° NNW 21:00:35 58° W 21:04:05 15° S
Cosmos 967 Rocket 4.5 20:55:12 10° SW 21:01:29 89° NW 21:07:49 10° NE
Spot 2 Rocket 3.6 21:00:39 17° S 21:04:32 71° WSW 21:09:36 10° NNW
Cosmos 1937 Rocket 3.4 20:59:58 10° SSW 21:05:07 80° ESE 21:10:20 10° NNE
JB-3 4.1 21:01:21 10° NNE 21:05:14 85° ESE 21:08:00 18° SSW
Cosmos 44 4.4 21:01:37 10° NW 21:06:38 40° WSW 21:10:07 17° S
Cosmos 2228 Rocket 4.0 21:03:26 10° SSW 21:07:45 50° WNW 21:12:10 10° N
Lacrosse 5 3.7 21:09:47 14° E 21:09:47 14° E 21:11:12 10° E
Cosmos 1743 2.6 21:05:07 10° N 21:09:01 89° E 21:11:02 27° S
SPOT 1/Viking Rocket 4.3 21:05:52 13° S 21:10:24 48° W 21:15:25 10° NNW
RESURS DK-1 3.2 21:07:56 10° NNW 21:11:54 40° NE 21:13:58 23° ESE
Resurs 01 Rocket 3.7 21:09:50 10° SW 21:13:16 22° W 21:16:43 10° NW
Cosmos 1707 Rocket 3.5 21:14:44 19° S 21:17:52 88° W 21:22:20 10° N
CARTOSAT-1 4.1 21:15:33 20° S 21:18:21 55° W 21:22:37 10° NNW
Meteor 1-27 Rocket 4.4 21:12:37 10° SSW 21:18:25 59° WNW 21:24:18 10° N
Cosmos 489 Rocket 4.5 21:14:36 10° NNW 21:20:53 87° ENE 21:24:45 25° SSE
Cosmos 2366 rocket 4.2 21:15:50 10° N 21:21:57 56° ENE 21:25:29 26° SE
CZ-4B DEB 4.2 21:22:08 45° SSE 21:23:00 76° ENE 21:26:12 10° N
Cosmos 1867 3.6 21:23:54 15° SSW 21:28:18 56° ESE 21:33:40 10° NE
SJ 16-02 4.4 21:25:57 10° W 21:28:42 16° NW 21:31:28 10° NNW
Tianhe-1 3.0 21:26:52 10° WSW 21:28:08 18° SW 21:28:08 18° SW
Cosmos 2181 Rocket 4.0 21:25:49 24° SSE 21:29:31 63° E 21:35:34 10° NNE
DNEPR-1 R/B 4.5 21:23:45 10° SW 21:29:33 63° NW 21:34:22 10° NNE
Meteor 2-4 Rocket 4.3 21:28:24 27° SE 21:30:43 40° E 21:35:50 10° NNE
Meteor 1-19 Rocket 4.1 21:28:38 26° S 21:31:42 67° E 21:37:06 10° NNE
Cosmos 2297 4.5 21:28:29 10° SW 21:34:02 54° WNW 21:39:37 10° NNE
Cosmos 44 Rocket 4.2 21:30:09 10° NNW 21:35:13 46° NE 21:38:15 22° ESE
BREEZE-M R/B 1.7 21:33:52 10° WNW 21:36:17 88° SSW 21:36:27 77° ESE
SL-27 R/B 3.4 21:34:19 10° N 21:37:24 32° ENE 21:38:02 30° E
BREEZE M DEB (TANK) 3.3 21:35:47 10° W 21:37:17 18° WSW 21:37:17 18° WSW
Cosmos 1833 4.5 21:32:46 10° NNW 21:38:31 62° ENE 21:41:31 28° SE
Cosmos 372 Rocket 3.9 21:36:41 18° SSW 21:40:30 90° WNW 21:45:39 10° NNE
Terra 2.0 21:38:38 29° S 21:40:59 68° WSW 21:45:45 10° NNW
Cosmos 1515 4.1 21:39:36 26° SSW 21:41:32 60° WNW 21:45:18 10° N
Cosmos 1733 Rocket 3.3 21:39:01 10° NNW 21:43:17 62° W 21:45:11 31° SSW
Cosmos 1943 Rocket 2.8 21:38:43 10° SW 21:44:16 58° WNW 21:49:47 10° NNE
Cosmos 1656 Rocket 3.7 21:46:52 30° S 21:49:26 59° ESE 21:54:54 10° NNE
Cosmos 2341 Rocket 4.4 21:44:51 10° NNW 21:51:09 62° W 21:55:10 23° SSW
ATLAS 2AS CENTAUR R/B 4.1 21:45:21 10° WNW 21:51:10 27° WSW 21:55:12 16° SSW
Okean 1 3.7 21:49:16 27° SSW 21:51:12 58° WNW 21:55:08 10° N
ALOS 2 4.3 21:51:57 18° E 21:53:36 22° ENE 21:56:58 10° NNE
Cosmos 2218 Rocket 4.0 21:48:16 10° N 21:54:37 84° W 21:58:01 30° S
Cosmos 494 Rocket 4.1 21:53:41 10° NNW 21:58:50 65° ENE 22:00:49 37° SE
SL-8 Rocket 4.3 21:56:59 10° NNW 22:03:14 63° W 22:06:45 27° SSW
H-2A R/B 4.1 21:59:47 10° N 22:03:52 54° WNW 22:06:00 25° SW
Cosmos 2298 Rocket 4.0 22:02:56 36° S 22:05:04 70° ESE 22:10:21 10° NNE
Cosmos 1908 Rocket 3.5 22:00:50 10° N 22:05:20 85° ENE 22:06:34 48° SSE
Nadezhda 3 Rocket 4.4 22:06:39 33° SE 22:08:56 47° E 22:14:50 10° NNE
NOSS 2-1 (C) 4.4 22:06:44 10° NW 22:11:26 64° NE 22:14:45 28° ESE
Cosmos 2369 Rocket 2.6 22:08:17 12° SW 22:13:29 63° WNW 22:19:07 10° NNE
ATLAS CENTAUR R/B 1.2 22:12:29 38° SW 22:13:45 72° NW 22:17:35 10° NE
NOSS 2-1 (D) 4.3 22:13:35 10° NW 22:18:20 71° NE 22:21:25 31° SE
Okean 1-7 2.9 22:21:21 58° S 22:22:09 81° E 22:26:29 10° N
COSMOS 2487 3.6 22:21:42 10° N 22:24:48 31° ENE 22:24:59 31° ENE
Spot 4 3.9 22:24:53 47° SSE 22:26:16 75° ENE 22:31:08 10° N
Cosmos 2344 4.3 22:17:53 10° NW 22:27:03 86° NE 22:35:50 23° SE
Cosmos 2242 Rocket 3.6 22:27:54 49° SSW 22:29:02 79° W 22:33:35 10° N
Okean 2 Rocket 4.2 22:26:36 10° N 22:30:33 31° ENE 22:31:30 28° E
Cosmos 2150 Rocket 4.1 22:28:56 33° SSW 22:31:23 79° WNW 22:36:40 10° NNE
Cosmos 1975 4.1 22:29:03 10° NNW 22:32:36 31° W 22:33:30 28° WSW
Cosmos 1125 Rocket 3.4 22:31:07 41° SSW 22:32:59 87° ESE 22:38:14 10° NNE
ISS -2.5 22:30:57 10° WNW 22:34:12 41° N 22:36:27 17° ENE
Cosmos 1703 Rocket 3.6 22:34:26 49° SSW 22:35:31 72° W 22:39:58 10° N
Cosmos 1782 Rocket 3.5 22:33:43 10° NNW 22:38:10 80° W 22:38:55 60° S
Cosmos 1378 3.0 22:38:54 75° E 22:38:54 75° E 22:42:35 10° NNE
Cosmos 724 4.3 22:46:12 31° SSW 22:49:25 88° SE 22:55:44 10° NE
RESURS DK-1 3.9 22:46:23 10° NW 22:49:42 23° WSW 22:49:50 23° WSW
Lacrosse 5 1.7 22:48:53 44° SSW 22:50:27 75° SE 22:55:33 10° NE
Cosmos 1934 Rocket 4.0 22:47:06 10° N 22:53:13 69° E 22:55:20 41° SSE
Cosmos 1805 3.2 22:51:44 10° N 22:55:38 68° E 22:55:42 67° E
Cosmos 1066 Rocket 4.1 22:55:52 47° S 22:57:34 80° E 23:03:10 10° NNE
Cosmos 1356 Rocket 3.7 22:57:10 10° NNW 23:01:24 56° W 23:01:50 53° WSW
Cosmos 2227 Rocket 3.6 22:58:20 10° NNW 23:03:22 32° NE 23:07:26 14° ESE
Cosmos 2297 Rocket 3.2 23:00:00 10° NNW 23:05:20 40° NE 23:08:40 21° ESE
Cosmos 1821 Rocket 4.3 22:59:13 10° NNW 23:05:29 58° W 23:07:52 37° SSW
SeaSat 1 4.4 23:02:44 10° ENE 23:05:37 16° ESE 23:05:37 16° ESE
Okean 3 3.6 23:06:38 56° WSW 23:07:12 63° WNW 23:11:24 10° N
NOSS 2-1 (E) 4.5 23:10:47 10° NW 23:15:49 58° SW 23:17:30 44° S
Cosmos 44 Rocket 4.3 23:11:59 10° NW 23:16:39 34° WSW 23:16:57 34° WSW
Cosmos 1766 3.1 23:13:14 10° N 23:17:12 81° E 23:17:13 81° E
Meteor 1-15 Rocket 4.3 23:12:22 10° NNW 23:18:07 75° W 23:19:48 48° S
Okean 1 Rocket 4.0 23:14:34 10° N 23:18:38 36° ENE 23:19:30 33° E
Cosmos 1674 Rocket 4.1 23:19:33 45° ESE 23:19:56 46° E 23:24:14 10° NNE
Okean 2 4.5 23:23:28 33° E 23:23:37 33° E 23:27:22 10° NNE
Cosmos 2221 Rocket 3.5 23:23:40 68° S 23:24:15 89° WSW 23:28:51 10° N
COSMOS 2455 2.8 23:20:15 10° NNW 23:26:19 84° NE 23:28:40 39° SE
USA 215 3.9 23:22:56 10° E 23:29:15 54° NNE 23:35:36 10° NW
ALOS 2 3.1 23:29:20 44° WSW 23:29:39 45° W 23:33:54 10° NNW
Nimbus 7 Rocket 4.3 23:24:39 10° NNE 23:30:35 88° ESE 23:32:34 45° SSW
COBE Rocket 4.2 23:31:00 48° SW 23:32:02 57° W 23:37:09 10° NNW
Cosmos 1300 Rocket 4.0 23:29:46 10° NNW 23:33:59 48° W 23:34:19 47° WSW
Cosmos 1269 Rocket 4.3 23:29:09 10° NNW 23:34:16 51° WSW 23:35:07 46° SW
USA 81 4.0 23:29:52 10° N 23:35:12 82° E 23:36:30 53° SSE
Cosmos 1470 3.4 23:32:27 10° N 23:36:16 46° ENE 23:36:35 45° E
Cosmos 371 Rocket 4.3 23:36:48 31° ESE 23:37:18 31° ESE 23:41:36 10° NE
Cosmos 1727 Rocket 4.4 23:36:38 37° SE 23:38:51 54° E 23:45:02 10° NNE
CZ-2D R/B 4.4 23:37:34 10° ENE 23:39:16 11° E 23:40:58 10° ESE
Cosmos 2251 Rocket 3.9 23:35:41 10° NNW 23:40:52 57° ENE 23:42:54 35° SE
EO 1 Del DPAF 3.8 23:42:34 10° NNE 23:45:57 45° E 23:45:57 45° E
Cosmos 1842 3.1 23:46:42 85° ENE 23:46:42 85° ENE 23:50:35 10° N
Cosmos 1733 4.2 23:43:40 10° NNW 23:46:57 36° W 23:46:57 36° W
Thor Agena Rocket 3.6 23:46:00 10° NNE 23:51:18 79° WNW 23:52:46 49° SSW
ATLAS CENTAUR R/B 4.1 23:51:12 10° WNW 23:53:21 14° NNW 23:55:33 10° N
